Regional Weather Roundup
Issued by NWS Spokane, WA

Home | Current Version | Previous Version | Text Only | Print | Product List | Glossary On
Versions: 1 2 3 4 5 6 7 8 9 10 11 12 13 14 15 16 17 18 19 20 21 22 23 24 25 26 27 28 29 30 31 32 33 34 35 36 37 38 39 40 41 42 43 44 45 46 47 48 49 50
000
NZUS01 KOTX 291400
RWROTX
EASTERN WASHINGTON/NORTHERN IDAHO ROUNDUP
NATIONAL WEATHER SERVICE, SPOKANE WA
700 AM PDT FRI AUG 29 2014

Note: "fair" indicated few or no clouds below 12,000 feet with no
significant weather and/or obstructions to visibility.

...NORTHEAST WASHINGTON AND NORTHERN IDAHO PANHANDLE...

CITY           SKY/WX    TMP DP  RH WIND       PRES   REMARKS
SPOKANE INTL   MOCLDY    57  41  55 SE7       29.96R
SPOKANE DOWNTO CLEAR     58  45  62 CALM      29.96R
COEUR D ALENE  CLEAR     55  46  71 E5        29.96R
DEER PARK      PTCLDY    49  44  83 CALM      29.96R

...SOUTHEAST WASHINGTON AND SOUTHERN IDAHO PANHANDLE...

CITY           SKY/WX    TMP DP  RH WIND       PRES   REMARKS
WALLA WALLA    PTCLDY    66  46  48 SE5       29.95S
PULLMAN/MOSCOW PTCLDY    53  40  61 CALM      30.00R
LOWELL           N/A     52  49  89 N3        30.04S

...COLUMBIA BASIN...

CITY           SKY/WX    TMP DP  RH WIND       PRES   REMARKS
EPHRATA        PTCLDY    57  46  66 NE6       29.89S
MOSES LAKE     CLEAR     57  50  77 SE5       29.91S
TRI CITIES     CLEAR     62  55  77 E5        29.91R
HERMISTON      CLEAR     61  48  62 S6        29.92S
PENDLETON      CLEAR     59  40  49 SE8       29.95S

...EAST SLOPES CASCADES...

CITY           SKY/WX    TMP DP  RH WIND       PRES   REMARKS
THE DALLES     CLEAR     59  48  67 SE6       29.93S
YAKIMA         CLEAR     53  46  77 W8        29.93S
ELLENSBURG     CLEAR     57  48  72 N3        29.94S
STAMPEDE PASS  FOG       51  50  96 W3        30.04  VSB 1/2
WENATCHEE      CLEAR     64  49  57 NW8       29.91S
OMAK           CLEAR     56  46  69 W5        29.91R

...SOUTHERN BRITISH COLUMBIA...

CITY           SKY/WX    TMP DP  RH WIND       PRES   REMARKS

...WESTERN MONTANA...

CITY           SKY/WX    TMP DP  RH WIND       PRES   REMARKS
MISSOULA       SUNNY     53  45  74 CALM      30.06S

...NEIGHBORING CITIES...

CITY           SKY/WX    TMP DP  RH WIND       PRES   REMARKS
SEATTLE        CLOUDY    59  55  87 W6        29.99S



USA.gov is the U.S. government's official web portal to all federal, state and local government web resources and services.